{"data":{"norad_id":54102,"intl_designator":"2022-136BD","name":"STARLINK-5179","alt_names":[],"object_type":"PAYLOAD","status":"ACTIVE","operator":null,"country":"US","launch_date":"2022-10-20","launch_site_code":"AFETR","launch_vehicle":null,"mission":null,"orbit_class":"UNKNOWN","rcs_meters":null,"size_class":null,"mass_kg":null,"dimensions":null,"purposes":["comms"],"wikipedia_slug":null,"has_3d_model":false,"image_url":null,"decayed_at":null,"tle_current":{"epoch":"2026-09-20T22:00:03.000096Z","epoch_age_seconds":53877,"freshness":"FRESH","line1":"1 54102U 22136BD  26263.91670139  .00019710  00000+0  63291-3 0  9992","line2":"2 54102  53.1604 175.3936 0001453 107.5479 130.8472 15.32319566  5756","mean_motion":15.32319566,"eccentricity":0.0001453,"inclination_deg":53.1604,"raan_deg":175.3936,"arg_perigee_deg":107.5479,"mean_anomaly_deg":130.8472,"bstar":0.00063291,"rev_number":575,"period_min":93.975175410636,"perigee_km":467.89884998186,"apogee_km":469.88859711012,"semimajor_km":6847.030723546,"source":"CELESTRAK","updated_at":"2026-09-21T09:00:33.086027Z"}}}